Terminal Aerodrome Forecast
Issued by NWS Austin/San Antonio, TX

Current Version | Previous Version | Text Only | Print | Product List | Glossary On
Versions: 1 2 3 4 5 6 7 8 9 10 11 12 13 14 15 16 17 18 19 20 21 22 23 24 25 26 27 28 29 30
000
FTUS44 KEWX 031100
TAFSAT
TAF
KSAT 031125Z 0312/0418 34003KT 3/4SM BR OVC002
      TEMPO 0312/0316 2SM -RA BR BKN004 OVC015
     FM031900 19008KT P6SM OVC009
     FM040600 15005KT 1SM BR OVC003 PROB30 0414/0418 3SM -RA=

USA.gov is the U.S. government's official web portal to all federal, state and local government web resources and services.